Location: Northern Prairie Star Party
(53.2167°N, 112.5333°W)
Time: 04:19:21
(UTC-06:00)

MaSat-1 - Visible Passes

Search period start: 24 October 2014 00:00
Search period end: 02 November 2014 23:00
Orbit: 273 x 619 km, 69.4° (Epoch: 24 October)

Date Brightness Start Highest point End Pass type
(mag) Time Alt. Az. Time Alt. Az. Time Alt. Az.
27 Oct ? 07:15:37 10° N 07:16:51 12° NNE 07:18:01 10° ENE visible
29 Oct ? 07:30:32 10° NNW 07:32:55 25° NE 07:35:07 10° ESE visible
30 Oct ? 06:50:12 10° N 06:51:59 16° NE 06:53:41 10° E visible
31 Oct ? 06:10:00 10° NNE 06:10:28 10° NNE 06:10:55 10° NE visible
31 Oct ? 07:43:46 10° NNW 07:46:26 82° NE 07:48:54 10° SE visible
01 Nov ? 07:02:14 11° NNW 07:04:35 36° NE 07:06:55 10° ESE visible
02 Nov ? 05:21:18 17° NNE 05:22:06 20° NE 05:24:03 10° E visible
